M I D A S
Marine Information and Data Acquisition System
Tripno 1496 of the Zeeleeuw from 2008-05-30 07:44:21 to 2008-05-30 14:10:02
Back to CruiseResearch ActivitiesStationsMapUnderway DataData graphs

EquipmentUnitsComments
TimeDGPSUTC
LatitudeDGPSDM.mWGS84
LongitudeDGPSDM.mWGS84
SpeedMeteo Stationm/sRelative wind speed
DirectionMeteo StationdegRelative wind direction
TemperatureMeteo Stationdeg CelciusAir temperature
PressureMeteo StationPaAtmospheric pressure
HumidityMeteo Station%Relative humidity
Missing or incorrect values are displayed as -999
Metereological data collected by the RV Zeeleeuw from 2008-05-30 07:44:13 to 2008-05-30 14:15:19
                                                                                    Next 1000 lines
Time Latitude Longitude Speed Direction Temperature Pressure Humidity
2008-05-30 07:44:23 51°13.623 2°56.049 -999 -999 -999 -999 -999
2008-05-30 07:44:28 51°13.623 2°56.049 -999 -999 -999 -999 -999
2008-05-30 07:44:33 51°13.623 2°56.049 -999 -999 -999 -999 -999
2008-05-30 07:44:38 51°13.623 2°56.049 -999 -999 -999 -999 -999
2008-05-30 07:44:43 51°13.623 2°56.048 -999 -999 -999 -999 -999
2008-05-30 07:44:48 51°13.623 2°56.047 -999 -999 -999 -999 -999
2008-05-30 07:44:53 51°13.624 2°56.046 -999 -999 -999 -999 -999
2008-05-30 07:44:58 51°13.624 2°56.044 -999 -999 -999 -999 -999
2008-05-30 07:45:03 51°13.625 2°56.041 -999 -999 -999 -999 -999
2008-05-30 07:45:08 51°13.626 2°56.037 -999 -999 -999 -999 -999
2008-05-30 07:45:13 51°13.627 2°56.033 -999 -999 -999 -999 -999
2008-05-30 07:45:18 51°13.628 2°56.027 -999 -999 -999 -999 -999
2008-05-30 07:45:24 51°13.63 2°56.02 -999 -999 -999 -999 -999
2008-05-30 07:45:29 51°13.632 2°56.013 -999 -999 -999 -999 -999
2008-05-30 07:45:33 51°13.634 2°56.008 -999 -999 -999 -999 -999
2008-05-30 07:45:38 51°13.636 2°56 -999 -999 -999 -999 -999
2008-05-30 07:45:43 51°13.638 2°55.991 -999 -999 -999 -999 -999
2008-05-30 07:45:49 51°13.641 2°55.981 -999 -999 -999 -999 -999
2008-05-30 07:45:53 51°13.642 2°55.974 -999 -999 -999 -999 -999
2008-05-30 07:45:58 51°13.644 2°55.964 -999 -999 -999 -999 -999
2008-05-30 07:46:03 51°13.647 2°55.954 -999 -999 -999 -999 -999
2008-05-30 07:46:09 51°13.65 2°55.942 -999 -999 -999 -999 -999
2008-05-30 07:46:13 51°13.652 2°55.934 -999 -999 -999 -999 -999
2008-05-30 07:46:18 51°13.655 2°55.925 -999 -999 -999 -999 -999
2008-05-30 07:46:23 51°13.658 2°55.915 -999 -999 -999 -999 -999
2008-05-30 07:46:28 51°13.661 2°55.905 -999 -999 -999 -999 -999
2008-05-30 07:46:34 51°13.664 2°55.894 -999 -999 -999 -999 -999
2008-05-30 07:46:39 51°13.667 2°55.885 -999 -999 -999 -999 -999
2008-05-30 07:46:43 51°13.67 2°55.878 -999 -999 -999 -999 -999
2008-05-30 07:46:48 51°13.673 2°55.869 -999 -999 -999 -999 -999
2008-05-30 07:46:53 51°13.677 2°55.859 -999 -999 -999 -999 -999
2008-05-30 07:46:59 51°13.681 2°55.848 -999 -999 -999 -999 -999
2008-05-30 07:47:04 51°13.685 2°55.839 -999 -999 -999 -999 -999
2008-05-30 07:47:08 51°13.688 2°55.831 -999 -999 -999 -999 -999
2008-05-30 07:47:13 51°13.692 2°55.822 -999 -999 -999 -999 -999
2008-05-30 07:47:19 51°13.697 2°55.811 -999 -999 -999 -999 -999
2008-05-30 07:47:24 51°13.701 2°55.802 -999 -999 -999 -999 -999
2008-05-30 07:47:29 51°13.706 2°55.792 -999 -999 -999 -999 -999
2008-05-30 07:47:33 51°13.709 2°55.785 -999 -999 -999 -999 -999
2008-05-30 07:47:39 51°13.715 2°55.774 -999 -999 -999 -999 -999
2008-05-30 07:47:44 51°13.72 2°55.765 -999 -999 -999 -999 -999
2008-05-30 07:47:49 51°13.725 2°55.756 -999 -999 -999 -999 -999
2008-05-30 07:47:53 51°13.729 2°55.749 -999 -999 -999 -999 -999
2008-05-30 07:47:59 51°13.736 2°55.738 -999 -999 -999 -999 -999
2008-05-30 07:48:03 51°13.74 2°55.732 -999 -999 -999 -999 -999
2008-05-30 07:48:08 51°13.746 2°55.724 -999 -999 -999 -999 -999
2008-05-30 07:48:14 51°13.752 2°55.715 -999 -999 -999 -999 -999
2008-05-30 07:48:19 51°13.758 2°55.708 -999 -999 -999 -999 -999
2008-05-30 07:48:24 51°13.764 2°55.701 -999 -999 -999 -999 -999
2008-05-30 07:48:28 51°13.77 2°55.696 -999 -999 -999 -999 -999
2008-05-30 07:48:33 51°13.776 2°55.69 -999 -999 -999 -999 -999
2008-05-30 07:48:39 51°13.784 2°55.682 -999 -999 -999 -999 -999
2008-05-30 07:48:44 51°13.791 2°55.677 -999 -999 -999 -999 -999
2008-05-30 07:48:48 51°13.796 2°55.672 -999 -999 -999 -999 -999
2008-05-30 07:48:53 51°13.803 2°55.667 -999 -999 -999 -999 -999
2008-05-30 07:48:59 51°13.812 2°55.66 -999 -999 -999 -999 -999
2008-05-30 07:49:04 51°13.818 2°55.655 -999 -999 -999 -999 -999
2008-05-30 07:49:08 51°13.824 2°55.651 -999 -999 -999 -999 -999
2008-05-30 07:49:13 51°13.831 2°55.647 -999 -999 -999 -999 -999
2008-05-30 07:49:18 51°13.838 2°55.642 -999 -999 -999 -999 -999
2008-05-30 07:49:24 51°13.846 2°55.638 -999 -999 -999 -999 -999
2008-05-30 07:49:29 51°13.853 2°55.634 -999 -999 -999 -999 -999
2008-05-30 07:49:33 51°13.858 2°55.632 -999 -999 -999 -999 -999
2008-05-30 07:49:38 51°13.865 2°55.63 -999 -999 -999 -999 -999
2008-05-30 07:49:43 51°13.872 2°55.628 -999 -999 -999 -999 -999
2008-05-30 07:49:49 51°13.881 2°55.627 -999 -999 -999 -999 -999
2008-05-30 07:49:54 51°13.888 2°55.627 -999 -999 -999 -999 -999
2008-05-30 07:49:59 51°13.895 2°55.627 -999 -999 -999 -999 -999
2008-05-30 07:50:03 51°13.9 2°55.628 -999 -999 -999 -999 -999
2008-05-30 07:50:09 51°13.908 2°55.631 -999 -999 -999 -999 -999
2008-05-30 07:50:14 51°13.914 2°55.633 -999 -999 -999 -999 -999
2008-05-30 07:50:19 51°13.92 2°55.635 -999 -999 -999 -999 -999
2008-05-30 07:50:23 51°13.924 2°55.638 -999 -999 -999 -999 -999
2008-05-30 07:50:28 51°13.929 2°55.641 -999 -999 -999 -999 -999
2008-05-30 07:50:34 51°13.935 2°55.645 -999 -999 -999 -999 -999
2008-05-30 07:50:39 51°13.939 2°55.648 -999 -999 -999 -999 -999
2008-05-30 07:50:43 51°13.942 2°55.651 -999 -999 -999 -999 -999
2008-05-30 07:50:48 51°13.946 2°55.654 -999 -999 -999 -999 -999
2008-05-30 07:50:53 51°13.949 2°55.657 -999 -999 -999 -999 -999
2008-05-30 07:50:59 51°13.952 2°55.66 -999 -999 -999 -999 -999
2008-05-30 07:51:03 51°13.953 2°55.661 -999 -999 -999 -999 -999
2008-05-30 07:51:09 51°13.954 2°55.662 -999 -999 -999 -999 -999
2008-05-30 07:51:13 51°13.954 2°55.662 -999 -999 -999 -999 -999
2008-05-30 07:51:18 51°13.955 2°55.661 -999 -999 -999 -999 -999
2008-05-30 07:51:24 51°13.954 2°55.657 -999 -999 -999 -999 -999
2008-05-30 07:51:28 51°13.954 2°55.653 -999 -999 -999 -999 -999
2008-05-30 07:51:33 51°13.954 2°55.648 -999 -999 -999 -999 -999
2008-05-30 07:51:38 51°13.954 2°55.641 -999 -999 -999 -999 -999
2008-05-30 07:51:44 51°13.956 2°55.632 -999 -999 -999 -999 -999
2008-05-30 07:51:49 51°13.958 2°55.623 -999 -999 -999 -999 -999
2008-05-30 07:51:53 51°13.96 2°55.616 -999 -999 -999 -999 -999
2008-05-30 07:51:58 51°13.963 2°55.606 -999 -999 -999 -999 -999
2008-05-30 07:52:03 51°13.966 2°55.598 -999 -999 -999 -999 -999
2008-05-30 07:52:09 51°13.971 2°55.587 -999 -999 -999 -999 -999
2008-05-30 07:52:13 51°13.974 2°55.581 -999 -999 -999 -999 -999
2008-05-30 07:52:18 51°13.979 2°55.574 -999 -999 -999 -999 -999
2008-05-30 07:52:23 51°13.984 2°55.566 -999 -999 -999 -999 -999
2008-05-30 07:52:29 51°13.99 2°55.558 -999 -999 -999 -999 -999
2008-05-30 07:52:33 51°13.994 2°55.552 -999 -999 -999 -999 -999
2008-05-30 07:52:38 51°14 2°55.546 -999 -999 -999 -999 -999
2008-05-30 07:52:43 51°14.005 2°55.539 -999 -999 -999 -999 -999
2008-05-30 07:52:48 51°14.011 2°55.533 -999 -999 -999 -999 -999
2008-05-30 07:52:53 51°14.018 2°55.528 -999 -999 -999 -999 -999
2008-05-30 07:52:58 51°14.025 2°55.524 -999 -999 -999 -999 -999
2008-05-30 07:53:03 51°14.031 2°55.517 -999 -999 -999 -999 -999
2008-05-30 07:53:08 51°14.037 2°55.511 -999 -999 -999 -999 -999
2008-05-30 07:53:13 51°14.043 2°55.506 -999 -999 -999 -999 -999
2008-05-30 07:53:18 51°14.05 2°55.5 -999 -999 -999 -999 -999
2008-05-30 07:53:23 51°14.057 2°55.495 -999 -999 -999 -999 -999
2008-05-30 07:53:29 51°14.065 2°55.489 -999 -999 -999 -999 -999
2008-05-30 07:53:33 51°14.071 2°55.485 -999 -999 -999 -999 -999
2008-05-30 07:53:38 51°14.078 2°55.479 -999 -999 -999 -999 -999
2008-05-30 07:53:44 51°14.087 2°55.473 -999 -999 -999 -999 -999
2008-05-30 07:53:49 51°14.094 2°55.467 -999 -999 -999 -999 -999
2008-05-30 07:53:53 51°14.099 2°55.462 -999 -999 -999 -999 -999
2008-05-30 07:53:58 51°14.106 2°55.457 -999 -999 -999 -999 -999
2008-05-30 07:54:03 51°14.114 2°55.452 -999 -999 -999 -999 -999
2008-05-30 07:54:09 51°14.122 2°55.446 -999 -999 -999 -999 -999
2008-05-30 07:54:13 51°14.127 2°55.442 -999 -999 -999 -999 -999
2008-05-30 07:54:18 51°14.134 2°55.437 -999 -999 -999 -999 -999
2008-05-30 07:54:23 51°14.141 2°55.432 -999 -999 -999 -999 -999
2008-05-30 07:54:29 51°14.149 2°55.425 -999 -999 -999 -999 -999
2008-05-30 07:54:33 51°14.154 2°55.421 -999 -999 -999 -999 -999
2008-05-30 07:54:38 51°14.161 2°55.416 -999 -999 -999 -999 -999
2008-05-30 07:54:43 51°14.168 2°55.41 -999 -999 -999 -999 -999
2008-05-30 07:54:48 51°14.175 2°55.404 -999 -999 -999 -999 -999
2008-05-30 07:54:53 51°14.181 2°55.398 -999 -999 -999 -999 -999
2008-05-30 07:54:58 51°14.188 2°55.392 -999 -999 -999 -999 -999
2008-05-30 07:55:03 51°14.194 2°55.385 -999 -999 -999 -999 -999
2008-05-30 07:55:08 51°14.201 2°55.378 -999 -999 -999 -999 -999
2008-05-30 07:55:13 51°14.208 2°55.371 -999 -999 -999 -999 -999
2008-05-30 07:55:18 51°14.214 2°55.364 -999 -999 -999 -999 -999
2008-05-30 07:55:23 51°14.22 2°55.356 -999 -999 -999 -999 -999
2008-05-30 07:55:28 51°14.226 2°55.348 -999 -999 -999 -999 -999
2008-05-30 07:55:33 51°14.232 2°55.339 -999 -999 -999 -999 -999
2008-05-30 07:55:38 51°14.238 2°55.33 -999 -999 -999 -999 -999
2008-05-30 07:55:43 51°14.243 2°55.321 -999 -999 -999 -999 -999
2008-05-30 07:55:48 51°14.249 2°55.311 -999 -999 -999 -999 -999
2008-05-30 07:55:53 51°14.254 2°55.302 -999 -999 -999 -999 -999
2008-05-30 07:55:58 51°14.259 2°55.292 -999 -999 -999 -999 -999
2008-05-30 07:56:04 51°14.265 2°55.28 -999 -999 -999 -999 -999
2008-05-30 07:56:09 51°14.27 2°55.27 -999 -999 -999 -999 -999
2008-05-30 07:56:13 51°14.274 2°55.262 -999 -999 -999 -999 -999
2008-05-30 07:56:18 51°14.28 2°55.251 -999 -999 -999 -999 -999
2008-05-30 07:56:23 51°14.286 2°55.241 -999 -999 -999 -999 -999
2008-05-30 07:56:28 51°14.292 2°55.229 -999 -999 -999 -999 -999
2008-05-30 07:56:33 51°14.298 2°55.217 -999 -999 -999 -999 -999
2008-05-30 07:56:38 51°14.305 2°55.204 -999 -999 -999 -999 -999
2008-05-30 07:56:43 51°14.313 2°55.191 -999 -999 -999 -999 -999
2008-05-30 07:56:48 51°14.32 2°55.177 -999 -999 -999 -999 -999
2008-05-30 07:56:53 51°14.328 2°55.162 -999 -999 -999 -999 -999
2008-05-30 07:56:58 51°14.336 2°55.146 -999 -999 -999 -999 -999
2008-05-30 07:57:03 51°14.344 2°55.129 -999 -999 -999 -999 -999
2008-05-30 07:57:08 51°14.352 2°55.111 -999 -999 -999 -999 -999
2008-05-30 07:57:13 51°14.362 2°55.094 -999 -999 -999 -999 -999
2008-05-30 07:57:18 51°14.372 2°55.076 -999 -999 -999 -999 -999
2008-05-30 07:57:23 51°14.382 2°55.058 -999 -999 -999 -999 -999
2008-05-30 07:57:28 51°14.393 2°55.041 -999 -999 -999 -999 -999
2008-05-30 07:57:33 51°14.406 2°55.025 -999 -999 -999 -999 -999
2008-05-30 07:57:38 51°14.418 2°55.008 -999 -999 -999 -999 -999
2008-05-30 07:57:43 51°14.431 2°54.993 -999 -999 -999 -999 -999
2008-05-30 07:57:48 51°14.445 2°54.977 -999 -999 -999 -999 -999
2008-05-30 07:57:53 51°14.459 2°54.963 -999 -999 -999 -999 -999
2008-05-30 07:57:58 51°14.473 2°54.949 -999 -999 -999 -999 -999
2008-05-30 07:58:03 51°14.487 2°54.935 -999 -999 -999 -999 -999
2008-05-30 07:58:08 51°14.502 2°54.921 -999 -999 -999 -999 -999
2008-05-30 07:58:13 51°14.517 2°54.909 -999 -999 -999 -999 -999
2008-05-30 07:58:18 51°14.532 2°54.897 -999 -999 -999 -999 -999
2008-05-30 07:58:23 51°14.548 2°54.885 -999 -999 -999 -999 -999
2008-05-30 07:58:28 51°14.563 2°54.872 -999 -999 -999 -999 -999
2008-05-30 07:58:33 51°14.578 2°54.86 -999 -999 -999 -999 -999
2008-05-30 07:58:38 51°14.594 2°54.849 -999 -999 -999 -999 -999
2008-05-30 07:58:43 51°14.61 2°54.839 -999 -999 -999 -999 -999
2008-05-30 07:58:48 51°14.626 2°54.829 -999 -999 -999 -999 -999
2008-05-30 07:58:53 51°14.642 2°54.819 -999 -999 -999 -999 -999
2008-05-30 07:58:58 51°14.658 2°54.809 -999 -999 -999 -999 -999
2008-05-30 07:59:03 51°14.675 2°54.799 -999 -999 -999 -999 -999
2008-05-30 07:59:08 51°14.691 2°54.789 -999 -999 -999 -999 -999
2008-05-30 07:59:13 51°14.707 2°54.78 -999 -999 -999 -999 -999
2008-05-30 07:59:18 51°14.723 2°54.77 -999 -999 -999 -999 -999
2008-05-30 07:59:23 51°14.739 2°54.76 -999 -999 -999 -999 -999
2008-05-30 07:59:28 51°14.756 2°54.75 -999 -999 -999 -999 -999
2008-05-30 07:59:33 51°14.772 2°54.74 -999 -999 -999 -999 -999
2008-05-30 07:59:38 51°14.788 2°54.73 -999 -999 -999 -999 -999
2008-05-30 07:59:43 51°14.804 2°54.719 -999 -999 -999 -999 -999
2008-05-30 07:59:48 51°14.819 2°54.708 -999 -999 -999 -999 -999
2008-05-30 07:59:53 51°14.835 2°54.697 -999 -999 -999 -999 -999
2008-05-30 07:59:58 51°14.851 2°54.686 -999 -999 -999 -999 -999
2008-05-30 08:00:03 51°14.866 2°54.675 -999 -999 -999 -999 -999
2008-05-30 08:00:08 51°14.882 2°54.664 -999 -999 -999 -999 -999
2008-05-30 08:00:13 51°14.898 2°54.653 -999 -999 -999 -999 -999
2008-05-30 08:00:18 51°14.914 2°54.642 -999 -999 -999 -999 -999
2008-05-30 08:00:23 51°14.93 2°54.63 -999 -999 -999 -999 -999
2008-05-30 08:00:28 51°14.946 2°54.619 -999 -999 -999 -999 -999
2008-05-30 08:00:33 51°14.961 2°54.608 -999 -999 -999 -999 -999
2008-05-30 08:00:38 51°14.977 2°54.597 -999 -999 -999 -999 -999
2008-05-30 08:00:43 51°14.993 2°54.585 -999 -999 -999 -999 -999
2008-05-30 08:00:48 51°15.009 2°54.574 -999 -999 -999 -999 -999
2008-05-30 08:00:53 51°15.024 2°54.563 -999 -999 -999 -999 -999
2008-05-30 08:00:58 51°15.04 2°54.551 -999 -999 -999 -999 -999
2008-05-30 08:01:03 51°15.056 2°54.539 -999 -999 -999 -999 -999
2008-05-30 08:01:08 51°15.071 2°54.527 -999 -999 -999 -999 -999
2008-05-30 08:01:13 51°15.087 2°54.515 -999 -999 -999 -999 -999
2008-05-30 08:01:18 51°15.102 2°54.502 -999 -999 -999 -999 -999
2008-05-30 08:01:23 51°15.117 2°54.489 -999 -999 -999 -999 -999
2008-05-30 08:01:28 51°15.133 2°54.477 -999 -999 -999 -999 -999
2008-05-30 08:01:33 51°15.148 2°54.465 -999 -999 -999 -999 -999
2008-05-30 08:01:38 51°15.164 2°54.453 -999 -999 -999 -999 -999
2008-05-30 08:01:43 51°15.179 2°54.441 -999 -999 -999 -999 -999
2008-05-30 08:01:48 51°15.195 2°54.43 -999 -999 -999 -999 -999
2008-05-30 08:01:53 51°15.21 2°54.418 -999 -999 -999 -999 -999
2008-05-30 08:01:58 51°15.226 2°54.406 -999 -999 -999 -999 -999
2008-05-30 08:02:03 51°15.242 2°54.394 -999 -999 -999 -999 -999
2008-05-30 08:02:08 51°15.258 2°54.383 -999 -999 -999 -999 -999
2008-05-30 08:02:13 51°15.273 2°54.371 -999 -999 -999 -999 -999
2008-05-30 08:02:18 51°15.289 2°54.36 -999 -999 -999 -999 -999
2008-05-30 08:02:23 51°15.305 2°54.349 -999 -999 -999 -999 -999
2008-05-30 08:02:28 51°15.321 2°54.337 -999 -999 -999 -999 -999
2008-05-30 08:02:33 51°15.336 2°54.326 -999 -999 -999 -999 -999
2008-05-30 08:02:38 51°15.351 2°54.314 -999 -999 -999 -999 -999
2008-05-30 08:02:43 51°15.367 2°54.302 -999 -999 -999 -999 -999
2008-05-30 08:02:48 51°15.382 2°54.291 -999 -999 -999 -999 -999
2008-05-30 08:02:53 51°15.398 2°54.278 -999 -999 -999 -999 -999
2008-05-30 08:02:58 51°15.413 2°54.265 -999 -999 -999 -999 -999
2008-05-30 08:03:03 51°15.427 2°54.252 -999 -999 -999 -999 -999
2008-05-30 08:03:08 51°15.442 2°54.239 -999 -999 -999 -999 -999
2008-05-30 08:03:13 51°15.457 2°54.225 -999 -999 -999 -999 -999
2008-05-30 08:03:18 51°15.471 2°54.211 -999 -999 -999 -999 -999
2008-05-30 08:03:23 51°15.485 2°54.197 -999 -999 -999 -999 -999
2008-05-30 08:03:28 51°15.5 2°54.183 -999 -999 -999 -999 -999
2008-05-30 08:03:33 51°15.514 2°54.169 -999 -999 -999 -999 -999
2008-05-30 08:03:38 51°15.528 2°54.155 -999 -999 -999 -999 -999
2008-05-30 08:03:43 51°15.543 2°54.14 -999 -999 -999 -999 -999
2008-05-30 08:03:48 51°15.557 2°54.126 -999 -999 -999 -999 -999
2008-05-30 08:03:53 51°15.571 2°54.111 -999 -999 -999 -999 -999
2008-05-30 08:03:58 51°15.586 2°54.097 -999 -999 -999 -999 -999
2008-05-30 08:04:03 51°15.6 2°54.083 -999 -999 -999 -999 -999
2008-05-30 08:04:08 51°15.614 2°54.068 -999 -999 -999 -999 -999
2008-05-30 08:04:13 51°15.628 2°54.054 -999 -999 -999 -999 -999
2008-05-30 08:04:18 51°15.642 2°54.039 -999 -999 -999 -999 -999
2008-05-30 08:04:23 51°15.657 2°54.025 -999 -999 -999 -999 -999
2008-05-30 08:04:28 51°15.671 2°54.011 -999 -999 -999 -999 -999
2008-05-30 08:04:33 51°15.686 2°53.997 -999 -999 -999 -999 -999
2008-05-30 08:04:38 51°15.701 2°53.984 -999 -999 -999 -999 -999
2008-05-30 08:04:43 51°15.715 2°53.97 -999 -999 -999 -999 -999
2008-05-30 08:04:48 51°15.73 2°53.956 -999 -999 -999 -999 -999
2008-05-30 08:04:53 51°15.744 2°53.942 -999 -999 -999 -999 -999
2008-05-30 08:04:58 51°15.759 2°53.928 -999 -999 -999 -999 -999
2008-05-30 08:05:03 51°15.774 2°53.914 -999 -999 -999 -999 -999
2008-05-30 08:05:08 51°15.788 2°53.901 -999 -999 -999 -999 -999
2008-05-30 08:05:13 51°15.803 2°53.888 -999 -999 -999 -999 -999
2008-05-30 08:05:18 51°15.818 2°53.875 -999 -999 -999 -999 -999
2008-05-30 08:05:23 51°15.833 2°53.862 -999 -999 -999 -999 -999
2008-05-30 08:05:28 51°15.848 2°53.849 -999 -999 -999 -999 -999
2008-05-30 08:05:33 51°15.863 2°53.836 -999 -999 -999 -999 -999
2008-05-30 08:05:38 51°15.878 2°53.824 -999 -999 -999 -999 -999
2008-05-30 08:05:43 51°15.893 2°53.811 -999 -999 -999 -999 -999
2008-05-30 08:05:48 51°15.908 2°53.797 -999 -999 -999 -999 -999
2008-05-30 08:05:53 51°15.922 2°53.784 -999 -999 -999 -999 -999
2008-05-30 08:05:58 51°15.937 2°53.77 -999 -999 -999 -999 -999
2008-05-30 08:06:03 51°15.951 2°53.756 -999 -999 -999 -999 -999
2008-05-30 08:06:08 51°15.966 2°53.742 -999 -999 -999 -999 -999
2008-05-30 08:06:13 51°15.981 2°53.729 -999 -999 -999 -999 -999
2008-05-30 08:06:18 51°15.996 2°53.715 -999 -999 -999 -999 -999
2008-05-30 08:06:23 51°16.01 2°53.702 -999 -999 -999 -999 -999
2008-05-30 08:06:28 51°16.025 2°53.688 -999 -999 -999 -999 -999
2008-05-30 08:06:33 51°16.04 2°53.674 -999 -999 -999 -999 -999
2008-05-30 08:06:38 51°16.055 2°53.661 -999 -999 -999 -999 -999
2008-05-30 08:06:43 51°16.069 2°53.647 -999 -999 -999 -999 -999
2008-05-30 08:06:48 51°16.084 2°53.634 -999 -999 -999 -999 -999
2008-05-30 08:06:53 51°16.099 2°53.62 -999 -999 -999 -999 -999
2008-05-30 08:06:58 51°16.113 2°53.606 -999 -999 -999 -999 -999
2008-05-30 08:07:03 51°16.128 2°53.592 -999 -999 -999 -999 -999
2008-05-30 08:07:08 51°16.143 2°53.579 -999 -999 -999 -999 -999
2008-05-30 08:07:13 51°16.157 2°53.566 -999 -999 -999 -999 -999
2008-05-30 08:07:18 51°16.172 2°53.553 -999 -999 -999 -999 -999
2008-05-30 08:07:23 51°16.187 2°53.539 -999 -999 -999 -999 -999
2008-05-30 08:07:28 51°16.202 2°53.526 -999 -999 -999 -999 -999
2008-05-30 08:07:33 51°16.216 2°53.513 -999 -999 -999 -999 -999
2008-05-30 08:07:38 51°16.231 2°53.499 -999 -999 -999 -999 -999
2008-05-30 08:07:43 51°16.246 2°53.487 -999 -999 -999 -999 -999
2008-05-30 08:07:48 51°16.261 2°53.474 -999 -999 -999 -999 -999
2008-05-30 08:07:53 51°16.277 2°53.462 -999 -999 -999 -999 -999
2008-05-30 08:07:58 51°16.292 2°53.449 -999 -999 -999 -999 -999
2008-05-30 08:08:03 51°16.307 2°53.438 -999 -999 -999 -999 -999
2008-05-30 08:08:08 51°16.323 2°53.426 -999 -999 -999 -999 -999
2008-05-30 08:08:13 51°16.338 2°53.414 -999 -999 -999 -999 -999
2008-05-30 08:08:18 51°16.354 2°53.403 -999 -999 -999 -999 -999
2008-05-30 08:08:23 51°16.37 2°53.392 -999 -999 -999 -999 -999
2008-05-30 08:08:28 51°16.386 2°53.38 -999 -999 -999 -999 -999
2008-05-30 08:08:33 51°16.401 2°53.369 -999 -999 -999 -999 -999
2008-05-30 08:08:38 51°16.417 2°53.358 -999 -999 -999 -999 -999
2008-05-30 08:08:43 51°16.433 2°53.347 -999 -999 -999 -999 -999
2008-05-30 08:08:48 51°16.448 2°53.335 -999 -999 -999 -999 -999
2008-05-30 08:08:53 51°16.463 2°53.323 -999 -999 -999 -999 -999
2008-05-30 08:08:58 51°16.479 2°53.311 -999 -999 -999 -999 -999
2008-05-30 08:09:03 51°16.494 2°53.299 -999 -999 -999 -999 -999
2008-05-30 08:09:08 51°16.51 2°53.288 -999 -999 -999 -999 -999
2008-05-30 08:09:13 51°16.526 2°53.277 -999 -999 -999 -999 -999
2008-05-30 08:09:18 51°16.541 2°53.266 -999 -999 -999 -999 -999
2008-05-30 08:09:23 51°16.557 2°53.253 -999 -999 -999 -999 -999
2008-05-30 08:09:28 51°16.572 2°53.241 -999 -999 -999 -999 -999
2008-05-30 08:09:33 51°16.587 2°53.228 -999 -999 -999 -999 -999
2008-05-30 08:09:38 51°16.602 2°53.215 -999 -999 -999 -999 -999
2008-05-30 08:09:43 51°16.617 2°53.201 -999 -999 -999 -999 -999
2008-05-30 08:09:48 51°16.632 2°53.188 -999 -999 -999 -999 -999
2008-05-30 08:09:53 51°16.647 2°53.174 -999 -999 -999 -999 -999
2008-05-30 08:09:58 51°16.661 2°53.16 -999 -999 -999 -999 -999
2008-05-30 08:10:03 51°16.676 2°53.146 -999 -999 -999 -999 -999
2008-05-30 08:10:08 51°16.691 2°53.132 -999 -999 -999 -999 -999
2008-05-30 08:10:13 51°16.705 2°53.118 -999 -999 -999 -999 -999
2008-05-30 08:10:18 51°16.72 2°53.104 -999 -999 -999 -999 -999
2008-05-30 08:10:23 51°16.735 2°53.09 -999 -999 -999 -999 -999
2008-05-30 08:10:28 51°16.749 2°53.076 -999 -999 -999 -999 -999
2008-05-30 08:10:33 51°16.764 2°53.062 -999 -999 -999 -999 -999
2008-05-30 08:10:38 51°16.779 2°53.049 -999 -999 -999 -999 -999
2008-05-30 08:10:43 51°16.793 2°53.035 -999 -999 -999 -999 -999
2008-05-30 08:10:48 51°16.808 2°53.021 -999 -999 -999 -999 -999
2008-05-30 08:10:53 51°16.822 2°53.007 -999 -999 -999 -999 -999
2008-05-30 08:10:58 51°16.836 2°52.992 -999 -999 -999 -999 -999
2008-05-30 08:11:03 51°16.851 2°52.979 -999 -999 -999 -999 -999
2008-05-30 08:11:08 51°16.865 2°52.964 -999 -999 -999 -999 -999
2008-05-30 08:11:13 51°16.879 2°52.95 -999 -999 -999 -999 -999
2008-05-30 08:11:18 51°16.894 2°52.935 -999 -999 -999 -999 -999
2008-05-30 08:11:23 51°16.908 2°52.921 -999 -999 -999 -999 -999
2008-05-30 08:11:28 51°16.922 2°52.905 -999 -999 -999 -999 -999
2008-05-30 08:11:33 51°16.935 2°52.89 -999 -999 -999 -999 -999
2008-05-30 08:11:38 51°16.949 2°52.875 -999 -999 -999 -999 -999
2008-05-30 08:11:43 51°16.963 2°52.859 -999 -999 -999 -999 -999
2008-05-30 08:11:48 51°16.976 2°52.843 -999 -999 -999 -999 -999
2008-05-30 08:11:53 51°16.989 2°52.827 -999 -999 -999 -999 -999
2008-05-30 08:11:58 51°17.003 2°52.811 -999 -999 -999 -999 -999
2008-05-30 08:12:03 51°17.016 2°52.795 -999 -999 -999 -999 -999
2008-05-30 08:12:08 51°17.03 2°52.779 -999 -999 -999 -999 -999
2008-05-30 08:12:13 51°17.043 2°52.763 -999 -999 -999 -999 -999
2008-05-30 08:12:18 51°17.057 2°52.748 -999 -999 -999 -999 -999
2008-05-30 08:12:23 51°17.071 2°52.732 -999 -999 -999 -999 -999
2008-05-30 08:12:28 51°17.085 2°52.717 -999 -999 -999 -999 -999
2008-05-30 08:12:33 51°17.099 2°52.702 -999 -999 -999 -999 -999
2008-05-30 08:12:38 51°17.114 2°52.687 -999 -999 -999 -999 -999
2008-05-30 08:12:43 51°17.128 2°52.673 -999 -999 -999 -999 -999
2008-05-30 08:12:48 51°17.142 2°52.658 -999 -999 -999 -999 -999
2008-05-30 08:12:53 51°17.157 2°52.644 -999 -999 -999 -999 -999
2008-05-30 08:12:58 51°17.171 2°52.628 -999 -999 -999 -999 -999
2008-05-30 08:13:03 51°17.185 2°52.613 -999 -999 -999 -999 -999
2008-05-30 08:13:08 51°17.199 2°52.598 -999 -999 -999 -999 -999
2008-05-30 08:13:13 51°17.213 2°52.582 -999 -999 -999 -999 -999
2008-05-30 08:13:18 51°17.227 2°52.567 -999 -999 -999 -999 -999
2008-05-30 08:13:23 51°17.24 2°52.551 -999 -999 -999 -999 -999
2008-05-30 08:13:28 51°17.254 2°52.535 -999 -999 -999 -999 -999
2008-05-30 08:13:33 51°17.268 2°52.52 -999 -999 -999 -999 -999
2008-05-30 08:13:38 51°17.282 2°52.504 -999 -999 -999 -999 -999
2008-05-30 08:13:43 51°17.297 2°52.491 -999 -999 -999 -999 -999
2008-05-30 08:13:48 51°17.312 2°52.477 -999 -999 -999 -999 -999
2008-05-30 08:13:53 51°17.327 2°52.465 -999 -999 -999 -999 -999
2008-05-30 08:13:58 51°17.343 2°52.454 -999 -999 -999 -999 -999
2008-05-30 08:14:03 51°17.359 2°52.444 -999 -999 -999 -999 -999
2008-05-30 08:14:08 51°17.376 2°52.435 -999 -999 -999 -999 -999
2008-05-30 08:14:13 51°17.393 2°52.427 -999 -999 -999 -999 -999
2008-05-30 08:14:18 51°17.41 2°52.42 -999 -999 -999 -999 -999
2008-05-30 08:14:23 51°17.427 2°52.414 -999 -999 -999 -999 -999
2008-05-30 08:14:28 51°17.444 2°52.408 -999 -999 -999 -999 -999
2008-05-30 08:14:33 51°17.462 2°52.404 -999 -999 -999 -999 -999
2008-05-30 08:14:38 51°17.479 2°52.399 -999 -999 -999 -999 -999
2008-05-30 08:14:43 51°17.497 2°52.395 -999 -999 -999 -999 -999
2008-05-30 08:14:48 51°17.514 2°52.391 -999 -999 -999 -999 -999
2008-05-30 08:14:53 51°17.532 2°52.388 -999 -999 -999 -999 -999
2008-05-30 08:14:58 51°17.55 2°52.385 -999 -999 -999 -999 -999
2008-05-30 08:15:03 51°17.568 2°52.383 -999 -999 -999 -999 -999
2008-05-30 08:15:08 51°17.586 2°52.381 -999 -999 -999 -999 -999
2008-05-30 08:15:13 51°17.604 2°52.379 -999 -999 -999 -999 -999
2008-05-30 08:15:18 51°17.622 2°52.378 -999 -999 -999 -999 -999
2008-05-30 08:15:23 51°17.64 2°52.377 -999 -999 -999 -999 -999
2008-05-30 08:15:28 51°17.658 2°52.376 -999 -999 -999 -999 -999
2008-05-30 08:15:33 51°17.676 2°52.376 -999 -999 -999 -999 -999
2008-05-30 08:15:38 51°17.694 2°52.374 -999 -999 -999 -999 -999
2008-05-30 08:15:43 51°17.712 2°52.374 -999 -999 -999 -999 -999
2008-05-30 08:15:48 51°17.73 2°52.372 -999 -999 -999 -999 -999
2008-05-30 08:15:53 51°17.748 2°52.37 -999 -999 -999 -999 -999
2008-05-30 08:15:58 51°17.766 2°52.368 -999 -999 -999 -999 -999
2008-05-30 08:16:03 51°17.784 2°52.367 -999 -999 -999 -999 -999
2008-05-30 08:16:08 51°17.802 2°52.366 -999 -999 -999 -999 -999
2008-05-30 08:16:13 51°17.82 2°52.364 -999 -999 -999 -999 -999
2008-05-30 08:16:18 51°17.838 2°52.363 -999 -999 -999 -999 -999
2008-05-30 08:16:23 51°17.856 2°52.362 -999 -999 -999 -999 -999
2008-05-30 08:16:28 51°17.874 2°52.361 -999 -999 -999 -999 -999
2008-05-30 08:16:33 51°17.892 2°52.36 -999 -999 -999 -999 -999
2008-05-30 08:16:38 51°17.91 2°52.359 -999 -999 -999 -999 -999
2008-05-30 08:16:43 51°17.928 2°52.358 -999 -999 -999 -999 -999
2008-05-30 08:16:48 51°17.946 2°52.36 -999 -999 -999 -999 -999
2008-05-30 08:16:53 51°17.964 2°52.362 -999 -999 -999 -999 -999
2008-05-30 08:16:58 51°17.982 2°52.366 -999 -999 -999 -999 -999
2008-05-30 08:17:03 51°18 2°52.37 -999 -999 -999 -999 -999
2008-05-30 08:17:08 51°18.018 2°52.376 -999 -999 -999 -999 -999
2008-05-30 08:17:13 51°18.035 2°52.38 -999 -999 -999 -999 -999
2008-05-30 08:17:18 51°18.053 2°52.387 -999 -999 -999 -999 -999
2008-05-30 08:17:23 51°18.071 2°52.393 -999 -999 -999 -999 -999
2008-05-30 08:17:28 51°18.089 2°52.4 -999 -999 -999 -999 -999
2008-05-30 08:17:33 51°18.107 2°52.407 -999 -999 -999 -999 -999
2008-05-30 08:17:38 51°18.124 2°52.414 -999 -999 -999 -999 -999
2008-05-30 08:17:43 51°18.142 2°52.421 -999 -999 -999 -999 -999
2008-05-30 08:17:48 51°18.16 2°52.428 -999 -999 -999 -999 -999
2008-05-30 08:17:53 51°18.177 2°52.437 -999 -999 -999 -999 -999
2008-05-30 08:17:58 51°18.195 2°52.444 -999 -999 -999 -999 -999
2008-05-30 08:18:03 51°18.212 2°52.455 -999 -999 -999 -999 -999
2008-05-30 08:18:08 51°18.229 2°52.464 -999 -999 -999 -999 -999
2008-05-30 08:18:13 51°18.246 2°52.476 -999 -999 -999 -999 -999
2008-05-30 08:18:18 51°18.263 2°52.487 -999 -999 -999 -999 -999
2008-05-30 08:18:23 51°18.28 2°52.499 -999 -999 -999 -999 -999
2008-05-30 08:18:28 51°18.297 2°52.511 -999 -999 -999 -999 -999
2008-05-30 08:18:33 51°18.314 2°52.524 -999 -999 -999 -999 -999
2008-05-30 08:18:38 51°18.331 2°52.536 -999 -999 -999 -999 -999
2008-05-30 08:18:43 51°18.348 2°52.548 -999 -999 -999 -999 -999
2008-05-30 08:18:48 51°18.365 2°52.56 -999 -999 -999 -999 -999
2008-05-30 08:18:53 51°18.381 2°52.572 -999 -999 -999 -999 -999
2008-05-30 08:18:58 51°18.399 2°52.583 -999 -999 -999 -999 -999
2008-05-30 08:19:03 51°18.415 2°52.595 -999 -999 -999 -999 -999
2008-05-30 08:19:08 51°18.432 2°52.606 -999 -999 -999 -999 -999
2008-05-30 08:19:13 51°18.45 2°52.617 -999 -999 -999 -999 -999
2008-05-30 08:19:18 51°18.467 2°52.628 -999 -999 -999 -999 -999
2008-05-30 08:19:23 51°18.484 2°52.639 -999 -999 -999 -999 -999
2008-05-30 08:19:28 51°18.501 2°52.649 -999 -999 -999 -999 -999
2008-05-30 08:19:33 51°18.518 2°52.66 -999 -999 -999 -999 -999
2008-05-30 08:19:38 51°18.535 2°52.67 -999 -999 -999 -999 -999
2008-05-30 08:19:43 51°18.552 2°52.681 -999 -999 -999 -999 -999
2008-05-30 08:19:48 51°18.569 2°52.692 -999 -999 -999 -999 -999
2008-05-30 08:19:53 51°18.587 2°52.703 -999 -999 -999 -999 -999
2008-05-30 08:19:58 51°18.604 2°52.715 -999 -999 -999 -999 -999
2008-05-30 08:20:03 51°18.621 2°52.727 -999 -999 -999 -999 -999
2008-05-30 08:20:08 51°18.638 2°52.738 -999 -999 -999 -999 -999
2008-05-30 08:20:13 51°18.655 2°52.749 -999 -999 -999 -999 -999
2008-05-30 08:20:18 51°18.672 2°52.76 -999 -999 -999 -999 -999
2008-05-30 08:20:23 51°18.689 2°52.771 -999 -999 -999 -999 -999
2008-05-30 08:20:28 51°18.706 2°52.782 -999 -999 -999 -999 -999
2008-05-30 08:20:33 51°18.723 2°52.794 -999 -999 -999 -999 -999
2008-05-30 08:20:38 51°18.741 2°52.805 -999 -999 -999 -999 -999
2008-05-30 08:20:43 51°18.758 2°52.815 -999 -999 -999 -999 -999
2008-05-30 08:20:48 51°18.775 2°52.825 -999 -999 -999 -999 -999
2008-05-30 08:20:53 51°18.793 2°52.835 -999 -999 -999 -999 -999
2008-05-30 08:20:58 51°18.81 2°52.845 -999 -999 -999 -999 -999
2008-05-30 08:21:03 51°18.828 2°52.854 -999 -999 -999 -999 -999
2008-05-30 08:21:08 51°18.845 2°52.863 -999 -999 -999 -999 -999
2008-05-30 08:21:13 51°18.863 2°52.872 -999 -999 -999 -999 -999
2008-05-30 08:21:18 51°18.881 2°52.88 -999 -999 -999 -999 -999
2008-05-30 08:21:23 51°18.898 2°52.888 -999 -999 -999 -999 -999
2008-05-30 08:21:28 51°18.915 2°52.897 -999 -999 -999 -999 -999
2008-05-30 08:21:33 51°18.933 2°52.905 -999 -999 -999 -999 -999
2008-05-30 08:21:38 51°18.951 2°52.913 -999 -999 -999 -999 -999
2008-05-30 08:21:43 51°18.969 2°52.922 -999 -999 -999 -999 -999
2008-05-30 08:21:48 51°18.986 2°52.93 -999 -999 -999 -999 -999
2008-05-30 08:21:53 51°19.004 2°52.939 -999 -999 -999 -999 -999
2008-05-30 08:21:58 51°19.021 2°52.947 -999 -999 -999 -999 -999
2008-05-30 08:22:03 51°19.039 2°52.956 -999 -999 -999 -999 -999
2008-05-30 08:22:08 51°19.057 2°52.964 -999 -999 -999 -999 -999
2008-05-30 08:22:13 51°19.074 2°52.973 -999 -999 -999 -999 -999
2008-05-30 08:22:18 51°19.092 2°52.981 -999 -999 -999 -999 -999
2008-05-30 08:22:23 51°19.11 2°52.99 -999 -999 -999 -999 -999
2008-05-30 08:22:28 51°19.127 2°52.998 -999 -999 -999 -999 -999
2008-05-30 08:22:33 51°19.144 2°53.006 -999 -999 -999 -999 -999
2008-05-30 08:22:37 51°19.158 2°53.012 -999 -999 -999 -999 -999
2008-05-30 08:22:43 51°19.176 2°53.021 -999 -999 -999 -999 -999
2008-05-30 08:22:48 51°19.191 2°53.027 -999 -999 -999 -999 -999
2008-05-30 08:22:53 51°19.204 2°53.034 -999 -999 -999 -999 -999
2008-05-30 08:22:58 51°19.217 2°53.04 -999 -999 -999 -999 -999
2008-05-30 08:23:03 51°19.229 2°53.047 -999 -999 -999 -999 -999
2008-05-30 08:23:08 51°19.241 2°53.054 -999 -999 -999 -999 -999
2008-05-30 08:23:13 51°19.252 2°53.06 -999 -999 -999 -999 -999
2008-05-30 08:23:18 51°19.263 2°53.067 -999 -999 -999 -999 -999
2008-05-30 08:23:23 51°19.274 2°53.073 -999 -999 -999 -999 -999
2008-05-30 08:23:28 51°19.284 2°53.078 -999 -999 -999 -999 -999
2008-05-30 08:23:33 51°19.294 2°53.08 -999 -999 -999 -999 -999
2008-05-30 08:23:38 51°19.303 2°53.082 -999 -999 -999 -999 -999
2008-05-30 08:23:43 51°19.311 2°53.082 -999 -999 -999 -999 -999
2008-05-30 08:23:48 51°19.319 2°53.08 -999 -999 -999 -999 -999
2008-05-30 08:23:53 51°19.327 2°53.078 -999 -999 -999 -999 -999
2008-05-30 08:23:58 51°19.333 2°53.074 -999 -999 -999 -999 -999
2008-05-30 08:24:03 51°19.339 2°53.07 -999 -999 -999 -999 -999
2008-05-30 08:24:08 51°19.345 2°53.066 -999 -999 -999 -999 -999
2008-05-30 08:24:13 51°19.349 2°53.061 -999 -999 -999 -999 -999
2008-05-30 08:24:18 51°19.353 2°53.055 -999 -999 -999 -999 -999
2008-05-30 08:24:23 51°19.356 2°53.049 -999 -999 -999 -999 -999
2008-05-30 08:24:28 51°19.359 2°53.041 -999 -999 -999 -999 -999
2008-05-30 08:24:33 51°19.36 2°53.032 -999 -999 -999 -999 -999
2008-05-30 08:24:38 51°19.36 2°53.023 -999 -999 -999 -999 -999
2008-05-30 08:24:43 51°19.359 2°53.013 -999 -999 -999 -999 -999
2008-05-30 08:24:48 51°19.358 2°53.003 -999 -999 -999 -999 -999
2008-05-30 08:24:53 51°19.357 2°52.992 -999 -999 -999 -999 -999
2008-05-30 08:24:58 51°19.355 2°52.98 -999 -999 -999 -999 -999
2008-05-30 08:25:03 51°19.353 2°52.967 -999 -999 -999 -999 -999
2008-05-30 08:25:08 51°19.352 2°52.954 -999 -999 -999 -999 -999
2008-05-30 08:25:13 51°19.351 2°52.94 -999 -999 -999 -999 -999
2008-05-30 08:25:18 51°19.35 2°52.926 -999 -999 -999 -999 -999
2008-05-30 08:25:23 51°19.35 2°52.911 -999 -999 -999 -999 -999
2008-05-30 08:25:28 51°19.35 2°52.896 -999 -999 -999 -999 -999
2008-05-30 08:25:33 51°19.35 2°52.881 -999 -999 -999 -999 -999
2008-05-30 08:25:38 51°19.35 2°52.866 -999 -999 -999 -999 -999
2008-05-30 08:25:43 51°19.35 2°52.85 -999 -999 -999 -999 -999
2008-05-30 08:25:48 51°19.349 2°52.835 -999 -999 -999 -999 -999
2008-05-30 08:25:53 51°19.348 2°52.82 -999 -999 -999 -999 -999
2008-05-30 08:25:58 51°19.347 2°52.807 -999 -999 -999 -999 -999
2008-05-30 08:26:03 51°19.345 2°52.795 -999 -999 -999 -999 -999
2008-05-30 08:26:08 51°19.343 2°52.784 -999 -999 -999 -999 -999
2008-05-30 08:26:13 51°19.341 2°52.774 -999 -999 -999 -999 -999
2008-05-30 08:26:18 51°19.339 2°52.764 -999 -999 -999 -999 -999
2008-05-30 08:26:23 51°19.337 2°52.755 -999 -999 -999 -999 -999
2008-05-30 08:26:28 51°19.335 2°52.746 -999 -999 -999 -999 -999
2008-05-30 08:26:33 51°19.334 2°52.737 -999 -999 -999 -999 -999
2008-05-30 08:26:38 51°19.333 2°52.729 -999 -999 -999 -999 -999
2008-05-30 08:26:43 51°19.333 2°52.721 -999 -999 -999 -999 -999
2008-05-30 08:26:48 51°19.333 2°52.714 -999 -999 -999 -999 -999
2008-05-30 08:26:53 51°19.334 2°52.707 -999 -999 -999 -999 -999
2008-05-30 08:26:58 51°19.334 2°52.7 -999 -999 -999 -999 -999
2008-05-30 08:27:03 51°19.335 2°52.692 -999 -999 -999 -999 -999
2008-05-30 08:27:08 51°19.335 2°52.686 -999 -999 -999 -999 -999
2008-05-30 08:27:13 51°19.336 2°52.679 -999 -999 -999 -999 -999
2008-05-30 08:27:18 51°19.336 2°52.673 -999 -999 -999 -999 -999
2008-05-30 08:27:23 51°19.337 2°52.667 -999 -999 -999 -999 -999
2008-05-30 08:27:28 51°19.338 2°52.661 -999 -999 -999 -999 -999
2008-05-30 08:27:33 51°19.338 2°52.655 -999 -999 -999 -999 -999
2008-05-30 08:27:38 51°19.338 2°52.65 -999 -999 -999 -999 -999
2008-05-30 08:27:43 51°19.339 2°52.645 -999 -999 -999 -999 -999
2008-05-30 08:27:48 51°19.339 2°52.639 -999 -999 -999 -999 -999
2008-05-30 08:27:53 51°19.34 2°52.635 -999 -999 -999 -999 -999
2008-05-30 08:27:58 51°19.34 2°52.63 -999 -999 -999 -999 -999
2008-05-30 08:28:03 51°19.34 2°52.625 -999 -999 -999 -999 -999
2008-05-30 08:28:08 51°19.341 2°52.62 -999 -999 -999 -999 -999
2008-05-30 08:28:13 51°19.341 2°52.616 -999 -999 -999 -999 -999
2008-05-30 08:28:18 51°19.341 2°52.611 -999 -999 -999 -999 -999
2008-05-30 08:28:23 51°19.342 2°52.607 -999 -999 -999 -999 -999
2008-05-30 08:28:28 51°19.342 2°52.602 -999 -999 -999 -999 -999
2008-05-30 08:28:33 51°19.342 2°52.598 -999 -999 -999 -999 -999
2008-05-30 08:28:38 51°19.343 2°52.593 -999 -999 -999 -999 -999
2008-05-30 08:28:43 51°19.343 2°52.588 -999 -999 -999 -999 -999
2008-05-30 08:28:48 51°19.343 2°52.583 -999 -999 -999 -999 -999
2008-05-30 08:28:53 51°19.344 2°52.578 -999 -999 -999 -999 -999
2008-05-30 08:28:58 51°19.344 2°52.573 -999 -999 -999 -999 -999
2008-05-30 08:29:03 51°19.344 2°52.568 -999 -999 -999 -999 -999
2008-05-30 08:29:08 51°19.344 2°52.563 -999 -999 -999 -999 -999
2008-05-30 08:29:13 51°19.344 2°52.558 -999 -999 -999 -999 -999
2008-05-30 08:29:18 51°19.344 2°52.552 -999 -999 -999 -999 -999
2008-05-30 08:29:23 51°19.344 2°52.547 -999 -999 -999 -999 -999
2008-05-30 08:29:28 51°19.344 2°52.542 -999 -999 -999 -999 -999
2008-05-30 08:29:33 51°19.344 2°52.537 -999 -999 -999 -999 -999
2008-05-30 08:29:38 51°19.344 2°52.532 -999 -999 -999 -999 -999
2008-05-30 08:29:43 51°19.343 2°52.527 -999 -999 -999 -999 -999
2008-05-30 08:29:48 51°19.343 2°52.523 -999 -999 -999 -999 -999
2008-05-30 08:29:53 51°19.342 2°52.519 -999 -999 -999 -999 -999
2008-05-30 08:29:58 51°19.342 2°52.515 -999 -999 -999 -999 -999
2008-05-30 08:30:03 51°19.341 2°52.511 -999 -999 -999 -999 -999
2008-05-30 08:30:08 51°19.341 2°52.508 -999 -999 -999 -999 -999
2008-05-30 08:30:13 51°19.34 2°52.505 -999 -999 -999 -999 -999
2008-05-30 08:30:18 51°19.339 2°52.502 -999 -999 -999 -999 -999
2008-05-30 08:30:23 51°19.338 2°52.499 -999 -999 -999 -999 -999
2008-05-30 08:30:28 51°19.338 2°52.497 -999 -999 -999 -999 -999
2008-05-30 08:30:33 51°19.337 2°52.494 -999 -999 -999 -999 -999
2008-05-30 08:30:38 51°19.336 2°52.492 -999 -999 -999 -999 -999
2008-05-30 08:30:43 51°19.335 2°52.49 -999 -999 -999 -999 -999
2008-05-30 08:30:48 51°19.334 2°52.488 -999 -999 -999 -999 -999
2008-05-30 08:30:53 51°19.334 2°52.487 -999 -999 -999 -999 -999
2008-05-30 08:30:58 51°19.333 2°52.485 -999 -999 -999 -999 -999
2008-05-30 08:31:03 51°19.333 2°52.484 -999 -999 -999 -999 -999
2008-05-30 08:31:08 51°19.332 2°52.482 -999 -999 -999 -999 -999
2008-05-30 08:31:13 51°19.331 2°52.482 -999 -999 -999 -999 -999
2008-05-30 08:31:18 51°19.331 2°52.481 -999 -999 -999 -999 -999
2008-05-30 08:31:23 51°19.33 2°52.48 -999 -999 -999 -999 -999
2008-05-30 08:31:28 51°19.329 2°52.48 -999 -999 -999 -999 -999
2008-05-30 08:31:33 51°19.329 2°52.479 -999 -999 -999 -999 -999
2008-05-30 08:31:38 51°19.328 2°52.479 -999 -999 -999 -999 -999
2008-05-30 08:31:43 51°19.328 2°52.479 -999 -999 -999 -999 -999
2008-05-30 08:31:48 51°19.327 2°52.479 -999 -999 -999 -999 -999
2008-05-30 08:31:53 51°19.327 2°52.479 -999 -999 -999 -999 -999
2008-05-30 08:31:58 51°19.326 2°52.479 -999 -999 -999 -999 -999
2008-05-30 08:32:03 51°19.326 2°52.479 -999 -999 -999 -999 -999
2008-05-30 08:32:08 51°19.326 2°52.479 -999 -999 -999 -999 -999
2008-05-30 08:32:13 51°19.325 2°52.48 -999 -999 -999 -999 -999
2008-05-30 08:32:18 51°19.325 2°52.48 -999 -999 -999 -999 -999
2008-05-30 08:32:23 51°19.324 2°52.481 -999 -999 -999 -999 -999
2008-05-30 08:32:28 51°19.324 2°52.481 -999 -999 -999 -999 -999
2008-05-30 08:32:33 51°19.324 2°52.482 -999 -999 -999 -999 -999
2008-05-30 08:32:38 51°19.323 2°52.482 -999 -999 -999 -999 -999
2008-05-30 08:32:43 51°19.323 2°52.483 -999 -999 -999 -999 -999
2008-05-30 08:32:48 51°19.323 2°52.483 -999 -999 -999 -999 -999
2008-05-30 08:32:53 51°19.323 2°52.484 -999 -999 -999 -999 -999
2008-05-30 08:32:58 51°19.322 2°52.485 -999 -999 -999 -999 -999
2008-05-30 08:33:03 51°19.322 2°52.486 -999 -999 -999 -999 -999
2008-05-30 08:33:08 51°19.322 2°52.486 -999 -999 -999 -999 -999
2008-05-30 08:33:13 51°19.322 2°52.487 -999 -999 -999 -999 -999
2008-05-30 08:33:18 51°19.322 2°52.487 -999 -999 -999 -999 -999
2008-05-30 08:33:23 51°19.322 2°52.488 -999 -999 -999 -999 -999
2008-05-30 08:33:28 51°19.321 2°52.488 -999 -999 -999 -999 -999
2008-05-30 08:33:33 51°19.321 2°52.489 -999 -999 -999 -999 -999
2008-05-30 08:33:38 51°19.321 2°52.489 -999 -999 -999 -999 -999
2008-05-30 08:33:43 51°19.321 2°52.49 -999 -999 -999 -999 -999
2008-05-30 08:33:48 51°19.321 2°52.491 -999 -999 -999 -999 -999
2008-05-30 08:33:53 51°19.32 2°52.491 -999 -999 -999 -999 -999
2008-05-30 08:33:58 51°19.32 2°52.492 -999 -999 -999 -999 -999
2008-05-30 08:34:03 51°19.32 2°52.492 -999 -999 -999 -999 -999
2008-05-30 08:34:08 51°19.32 2°52.493 -999 -999 -999 -999 -999
2008-05-30 08:34:13 51°19.32 2°52.493 -999 -999 -999 -999 -999
2008-05-30 08:34:18 51°19.319 2°52.494 -999 -999 -999 -999 -999
2008-05-30 08:34:23 51°19.319 2°52.494 -999 -999 -999 -999 -999
2008-05-30 08:34:28 51°19.319 2°52.494 -999 -999 -999 -999 -999
2008-05-30 08:34:33 51°19.318 2°52.494 -999 -999 -999 -999 -999
2008-05-30 08:34:38 51°19.318 2°52.495 -999 -999 -999 -999 -999
2008-05-30 08:34:43 51°19.317 2°52.495 -999 -999 -999 -999 -999
2008-05-30 08:34:48 51°19.317 2°52.495 -999 -999 -999 -999 -999
2008-05-30 08:34:53 51°19.317 2°52.495 -999 -999 -999 -999 -999
2008-05-30 08:34:58 51°19.316 2°52.496 -999 -999 -999 -999 -999
2008-05-30 08:35:03 51°19.316 2°52.496 -999 -999 -999 -999 -999
2008-05-30 08:35:08 51°19.315 2°52.496 -999 -999 -999 -999 -999
2008-05-30 08:35:13 51°19.315 2°52.496 -999 -999 -999 -999 -999
2008-05-30 08:35:18 51°19.314 2°52.496 -999 -999 -999 -999 -999
2008-05-30 08:35:23 51°19.314 2°52.496 -999 -999 -999 -999 -999
2008-05-30 08:35:28 51°19.313 2°52.496 -999 -999 -999 -999 -999
2008-05-30 08:35:33 51°19.313 2°52.496 -999 -999 -999 -999 -999
2008-05-30 08:35:38 51°19.312 2°52.497 -999 -999 -999 -999 -999
2008-05-30 08:35:43 51°19.312 2°52.497 -999 -999 -999 -999 -999
2008-05-30 08:35:48 51°19.311 2°52.497 -999 -999 -999 -999 -999
2008-05-30 08:35:53 51°19.311 2°52.497 -999 -999 -999 -999 -999
2008-05-30 08:35:58 51°19.31 2°52.496 -999 -999 -999 -999 -999
2008-05-30 08:36:03 51°19.31 2°52.496 -999 -999 -999 -999 -999
2008-05-30 08:36:08 51°19.309 2°52.496 -999 -999 -999 -999 -999
2008-05-30 08:36:13 51°19.309 2°52.496 -999 -999 -999 -999 -999
2008-05-30 08:36:18 51°19.308 2°52.496 -999 -999 -999 -999 -999
2008-05-30 08:36:23 51°19.308 2°52.496 -999 -999 -999 -999 -999
2008-05-30 08:36:28 51°19.308 2°52.496 -999 -999 -999 -999 -999
2008-05-30 08:36:33 51°19.308 2°52.496 -999 -999 -999 -999 -999
2008-05-30 08:36:38 51°19.308 2°52.495 -999 -999 -999 -999 -999
2008-05-30 08:36:43 51°19.308 2°52.495 -999 -999 -999 -999 -999
2008-05-30 08:36:48 51°19.307 2°52.495 -999 -999 -999 -999 -999
2008-05-30 08:36:53 51°19.307 2°52.495 -999 -999 -999 -999 -999
2008-05-30 08:36:58 51°19.307 2°52.494 -999 -999 -999 -999 -999
2008-05-30 08:37:03 51°19.307 2°52.495 -999 -999 -999 -999 -999
2008-05-30 08:37:08 51°19.306 2°52.494 -999 -999 -999 -999 -999
2008-05-30 08:37:13 51°19.306 2°52.494 -999 -999 -999 -999 -999
2008-05-30 08:37:18 51°19.306 2°52.494 -999 -999 -999 -999 -999
2008-05-30 08:37:23 51°19.306 2°52.494 -999 -999 -999 -999 -999
2008-05-30 08:37:28 51°19.305 2°52.494 -999 -999 -999 -999 -999
2008-05-30 08:37:33 51°19.305 2°52.494 -999 -999 -999 -999 -999
2008-05-30 08:37:38 51°19.305 2°52.494 -999 -999 -999 -999 -999
2008-05-30 08:37:43 51°19.305 2°52.494 -999 -999 -999 -999 -999
2008-05-30 08:37:48 51°19.305 2°52.493 -999 -999 -999 -999 -999
2008-05-30 08:37:53 51°19.304 2°52.493 -999 -999 -999 -999 -999
2008-05-30 08:37:58 51°19.304 2°52.493 -999 -999 -999 -999 -999
2008-05-30 08:38:03 51°19.304 2°52.493 -999 -999 -999 -999 -999
2008-05-30 08:38:08 51°19.304 2°52.493 -999 -999 -999 -999 -999
2008-05-30 08:38:13 51°19.304 2°52.493 -999 -999 -999 -999 -999
2008-05-30 08:38:18 51°19.303 2°52.493 -999 -999 -999 -999 -999
2008-05-30 08:38:23 51°19.303 2°52.493 -999 -999 -999 -999 -999
2008-05-30 08:38:28 51°19.303 2°52.493 -999 -999 -999 -999 -999
2008-05-30 08:38:33 51°19.303 2°52.492 -999 -999 -999 -999 -999
2008-05-30 08:38:38 51°19.303 2°52.492 -999 -999 -999 -999 -999
2008-05-30 08:38:43 51°19.302 2°52.492 -999 -999 -999 -999 -999
2008-05-30 08:38:48 51°19.302 2°52.491 -999 -999 -999 -999 -999
2008-05-30 08:38:53 51°19.302 2°52.491 -999 -999 -999 -999 -999
2008-05-30 08:38:58 51°19.302 2°52.491 -999 -999 -999 -999 -999
2008-05-30 08:39:03 51°19.301 2°52.491 -999 -999 -999 -999 -999
2008-05-30 08:39:08 51°19.301 2°52.491 -999 -999 -999 -999 -999
2008-05-30 08:39:13 51°19.301 2°52.491 -999 -999 -999 -999 -999
2008-05-30 08:39:18 51°19.301 2°52.491 -999 -999 -999 -999 -999
2008-05-30 08:39:23 51°19.3 2°52.491 -999 -999 -999 -999 -999
2008-05-30 08:39:28 51°19.3 2°52.49 -999 -999 -999 -999 -999
2008-05-30 08:39:33 51°19.3 2°52.49 -999 -999 -999 -999 -999
2008-05-30 08:39:38 51°19.299 2°52.49 -999 -999 -999 -999 -999
2008-05-30 08:39:43 51°19.299 2°52.49 -999 -999 -999 -999 -999
2008-05-30 08:39:48 51°19.299 2°52.49 -999 -999 -999 -999 -999
2008-05-30 08:39:53 51°19.299 2°52.49 -999 -999 -999 -999 -999
2008-05-30 08:39:58 51°19.299 2°52.49 -999 -999 -999 -999 -999
2008-05-30 08:40:03 51°19.298 2°52.49 -999 -999 -999 -999 -999
2008-05-30 08:40:08 51°19.298 2°52.49 -999 -999 -999 -999 -999
2008-05-30 08:40:13 51°19.298 2°52.489 -999 -999 -999 -999 -999
2008-05-30 08:40:18 51°19.298 2°52.489 -999 -999 -999 -999 -999
2008-05-30 08:40:23 51°19.297 2°52.49 -999 -999 -999 -999 -999
2008-05-30 08:40:28 51°19.297 2°52.49 -999 -999 -999 -999 -999
2008-05-30 08:40:33 51°19.297 2°52.489 -999 -999 -999 -999 -999
2008-05-30 08:40:38 51°19.297 2°52.489 -999 -999 -999 -999 -999
2008-05-30 08:40:43 51°19.296 2°52.489 -999 -999 -999 -999 -999
2008-05-30 08:40:48 51°19.296 2°52.489 -999 -999 -999 -999 -999
2008-05-30 08:40:53 51°19.296 2°52.489 -999 -999 -999 -999 -999
2008-05-30 08:40:58 51°19.296 2°52.489 -999 -999 -999 -999 -999
2008-05-30 08:41:03 51°19.295 2°52.489 -999 -999 -999 -999 -999
2008-05-30 08:41:08 51°19.295 2°52.488 -999 -999 -999 -999 -999
2008-05-30 08:41:13 51°19.295 2°52.488 -999 -999 -999 -999 -999
2008-05-30 08:41:18 51°19.295 2°52.488 -999 -999 -999 -999 -999
2008-05-30 08:41:23 51°19.295 2°52.487 -999 -999 -999 -999 -999
2008-05-30 08:41:28 51°19.295 2°52.487 -999 -999 -999 -999 -999
2008-05-30 08:41:33 51°19.295 2°52.487 -999 -999 -999 -999 -999
2008-05-30 08:41:38 51°19.294 2°52.486 -999 -999 -999 -999 -999
2008-05-30 08:41:43 51°19.294 2°52.486 -999 -999 -999 -999 -999
2008-05-30 08:41:48 51°19.294 2°52.486 -999 -999 -999 -999 -999
2008-05-30 08:41:53 51°19.294 2°52.485 -999 -999 -999 -999 -999
2008-05-30 08:41:58 51°19.294 2°52.485 -999 -999 -999 -999 -999
2008-05-30 08:42:03 51°19.294 2°52.485 -999 -999 -999 -999 -999
2008-05-30 08:42:08 51°19.294 2°52.484 -999 -999 -999 -999 -999
2008-05-30 08:42:13 51°19.294 2°52.484 -999 -999 -999 -999 -999
2008-05-30 08:42:18 51°19.294 2°52.484 -999 -999 -999 -999 -999
2008-05-30 08:42:23 51°19.294 2°52.483 -999 -999 -999 -999 -999
2008-05-30 08:42:28 51°19.295 2°52.483 -999 -999 -999 -999 -999
2008-05-30 08:42:33 51°19.295 2°52.483 -999 -999 -999 -999 -999
2008-05-30 08:42:38 51°19.295 2°52.482 -999 -999 -999 -999 -999
2008-05-30 08:42:43 51°19.295 2°52.482 -999 -999 -999 -999 -999
2008-05-30 08:42:48 51°19.296 2°52.482 -999 -999 -999 -999 -999
2008-05-30 08:42:53 51°19.296 2°52.482 -999 -999 -999 -999 -999
2008-05-30 08:42:58 51°19.297 2°52.482 -999 -999 -999 -999 -999
2008-05-30 08:43:03 51°19.298 2°52.481 -999 -999 -999 -999 -999
2008-05-30 08:43:08 51°19.298 2°52.481 -999 -999 -999 -999 -999
2008-05-30 08:43:13 51°19.299 2°52.481 -999 -999 -999 -999 -999
2008-05-30 08:43:18 51°19.3 2°52.481 -999 -999 -999 -999 -999
2008-05-30 08:43:23 51°19.301 2°52.48 -999 -999 -999 -999 -999
2008-05-30 08:43:28 51°19.302 2°52.48 -999 -999 -999 -999 -999
2008-05-30 08:43:33 51°19.302 2°52.48 -999 -999 -999 -999 -999
2008-05-30 08:43:38 51°19.303 2°52.48 -999 -999 -999 -999 -999
2008-05-30 08:43:43 51°19.304 2°52.479 -999 -999 -999 -999 -999
2008-05-30 08:43:48 51°19.305 2°52.479 -999 -999 -999 -999 -999
2008-05-30 08:43:53 51°19.306 2°52.479 -999 -999 -999 -999 -999
2008-05-30 08:43:58 51°19.307 2°52.479 -999 -999 -999 -999 -999
2008-05-30 08:44:03 51°19.308 2°52.479 -999 -999 -999 -999 -999
2008-05-30 08:44:08 51°19.309 2°52.479 -999 -999 -999 -999 -999
2008-05-30 08:44:13 51°19.31 2°52.478 -999 -999 -999 -999 -999
2008-05-30 08:44:18 51°19.31 2°52.478 -999 -999 -999 -999 -999
2008-05-30 08:44:23 51°19.311 2°52.478 -999 -999 -999 -999 -999
2008-05-30 08:44:28 51°19.312 2°52.478 -999 -999 -999 -999 -999
2008-05-30 08:44:33 51°19.313 2°52.477 -999 -999 -999 -999 -999
2008-05-30 08:44:38 51°19.314 2°52.477 -999 -999 -999 -999 -999
2008-05-30 08:44:43 51°19.314 2°52.477 -999 -999 -999 -999 -999
2008-05-30 08:44:48 51°19.315 2°52.476 -999 -999 -999 -999 -999
2008-05-30 08:44:53 51°19.316 2°52.476 -999 -999 -999 -999 -999
2008-05-30 08:44:58 51°19.316 2°52.476 -999 -999 -999 -999 -999
2008-05-30 08:45:03 51°19.317 2°52.476 -999 -999 -999 -999 -999
2008-05-30 08:45:08 51°19.317 2°52.476 -999 -999 -999 -999 -999
2008-05-30 08:45:13 51°19.317 2°52.476 -999 -999 -999 -999 -999
2008-05-30 08:45:18 51°19.318 2°52.475 -999 -999 -999 -999 -999
2008-05-30 08:45:23 51°19.318 2°52.476 -999 -999 -999 -999 -999
2008-05-30 08:45:28 51°19.318 2°52.476 -999 -999 -999 -999 -999
2008-05-30 08:45:33 51°19.318 2°52.476 -999 -999 -999 -999 -999
2008-05-30 08:45:38 51°19.318 2°52.476 -999 -999 -999 -999 -999
2008-05-30 08:45:43 51°19.318 2°52.476 -999 -999 -999 -999 -999
2008-05-30 08:45:48 51°19.318 2°52.476 -999 -999 -999 -999 -999
2008-05-30 08:45:53 51°19.317 2°52.476 -999 -999 -999 -999 -999
2008-05-30 08:45:58 51°19.317 2°52.477 -999 -999 -999 -999 -999
2008-05-30 08:46:03 51°19.317 2°52.477 -999 -999 -999 -999 -999
2008-05-30 08:46:08 51°19.317 2°52.478 -999 -999 -999 -999 -999
2008-05-30 08:46:13 51°19.317 2°52.478 -999 -999 -999 -999 -999
2008-05-30 08:46:18 51°19.316 2°52.478 -999 -999 -999 -999 -999
2008-05-30 08:46:23 51°19.316 2°52.479 -999 -999 -999 -999 -999
2008-05-30 08:46:28 51°19.316 2°52.479 -999 -999 -999 -999 -999
2008-05-30 08:46:33 51°19.315 2°52.479 -999 -999 -999 -999 -999
2008-05-30 08:46:38 51°19.315 2°52.48 -999 -999 -999 -999 -999
2008-05-30 08:46:43 51°19.315 2°52.48 -999 -999 -999 -999 -999
2008-05-30 08:46:48 51°19.315 2°52.48 -999 -999 -999 -999 -999
2008-05-30 08:46:53 51°19.314 2°52.48 -999 -999 -999 -999 -999
2008-05-30 08:46:58 51°19.314 2°52.48 -999 -999 -999 -999 -999
2008-05-30 08:47:03 51°19.314 2°52.481 -999 -999 -999 -999 -999
2008-05-30 08:47:08 51°19.314 2°52.481 -999 -999 -999 -999 -999
2008-05-30 08:47:13 51°19.314 2°52.481 -999 -999 -999 -999 -999
2008-05-30 08:47:18 51°19.314 2°52.481 -999 -999 -999 -999 -999
2008-05-30 08:47:23 51°19.314 2°52.482 -999 -999 -999 -999 -999
2008-05-30 08:47:28 51°19.314 2°52.482 -999 -999 -999 -999 -999
2008-05-30 08:47:33 51°19.313 2°52.482 -999 -999 -999 -999 -999
2008-05-30 08:47:38 51°19.313 2°52.482 -999 -999 -999 -999 -999
2008-05-30 08:47:43 51°19.313 2°52.482 -999 -999 -999 -999 -999
2008-05-30 08:47:48 51°19.313 2°52.482 -999 -999 -999 -999 -999
2008-05-30 08:47:53 51°19.313 2°52.482 -999 -999 -999 -999 -999
2008-05-30 08:47:58 51°19.313 2°52.482 -999 -999 -999 -999 -999
2008-05-30 08:48:03 51°19.313 2°52.482 -999 -999 -999 -999 -999
2008-05-30 08:48:08 51°19.313 2°52.482 -999 -999 -999 -999 -999
2008-05-30 08:48:13 51°19.313 2°52.482 -999 -999 -999 -999 -999
2008-05-30 08:48:18 51°19.313 2°52.482 -999 -999 -999 -999 -999
2008-05-30 08:48:23 51°19.313 2°52.482 -999 -999 -999 -999 -999
2008-05-30 08:48:28 51°19.313 2°52.482 -999 -999 -999 -999 -999
2008-05-30 08:48:33 51°19.314 2°52.482 -999 -999 -999 -999 -999
2008-05-30 08:48:38 51°19.314 2°52.482 -999 -999 -999 -999 -999
2008-05-30 08:48:43 51°19.314 2°52.482 -999 -999 -999 -999 -999
2008-05-30 08:48:48 51°19.314 2°52.482 -999 -999 -999 -999 -999
2008-05-30 08:48:53 51°19.314 2°52.482 -999 -999 -999 -999 -999
2008-05-30 08:48:58 51°19.314 2°52.482 -999 -999 -999 -999 -999
2008-05-30 08:49:03 51°19.314 2°52.482 -999 -999 -999 -999 -999
2008-05-30 08:49:08 51°19.314 2°52.482 -999 -999 -999 -999 -999
2008-05-30 08:49:13 51°19.314 2°52.482 -999 -999 -999 -999 -999
2008-05-30 08:49:18 51°19.314 2°52.482 -999 -999 -999 -999 -999
2008-05-30 08:49:23 51°19.315 2°52.482 -999 -999 -999 -999 -999
2008-05-30 08:49:28 51°19.315 2°52.483 -999 -999 -999 -999 -999
2008-05-30 08:49:33 51°19.315 2°52.483 -999 -999 -999 -999 -999
2008-05-30 08:49:38 51°19.315 2°52.483 -999 -999 -999 -999 -999
2008-05-30 08:49:43 51°19.315 2°52.483 -999 -999 -999 -999 -999
2008-05-30 08:49:48 51°19.315 2°52.483 -999 -999 -999 -999 -999
2008-05-30 08:49:53 51°19.316 2°52.483 -999 -999 -999 -999 -999
2008-05-30 08:49:58 51°19.316 2°52.483 -999 -999 -999 -999 -999
2008-05-30 08:50:03 51°19.316 2°52.484 -999 -999 -999 -999 -999
2008-05-30 08:50:08 51°19.316 2°52.484 -999 -999 -999 -999 -999
2008-05-30 08:50:13 51°19.316 2°52.484 -999 -999 -999 -999 -999
2008-05-30 08:50:18 51°19.316 2°52.484 -999 -999 -999 -999 -999
2008-05-30 08:50:23 51°19.316 2°52.484 -999 -999 -999 -999 -999
2008-05-30 08:50:28 51°19.317 2°52.485 -999 -999 -999 -999 -999
2008-05-30 08:50:33 51°19.317 2°52.485 -999 -999 -999 -999 -999
2008-05-30 08:50:38 51°19.317 2°52.485 -999 -999 -999 -999 -999
2008-05-30 08:50:43 51°19.317 2°52.485 -999 -999 -999 -999 -999
2008-05-30 08:50:48 51°19.317 2°52.485 -999 -999 -999 -999 -999
2008-05-30 08:50:53 51°19.317 2°52.485 -999 -999 -999 -999 -999
2008-05-30 08:50:58 51°19.317 2°52.485 -999 -999 -999 -999 -999
2008-05-30 08:51:03 51°19.317 2°52.485 -999 -999 -999 -999 -999
2008-05-30 08:51:08 51°19.318 2°52.486 -999 -999 -999 -999 -999
2008-05-30 08:51:13 51°19.318 2°52.486 -999 -999 -999 -999 -999
2008-05-30 08:51:18 51°19.318 2°52.486 -999 -999 -999 -999 -999
2008-05-30 08:51:23 51°19.318 2°52.486 -999 -999 -999 -999 -999
2008-05-30 08:51:28 51°19.319 2°52.486 -999 -999 -999 -999 -999
2008-05-30 08:51:33 51°19.319 2°52.486 -999 -999 -999 -999 -999
2008-05-30 08:51:38 51°19.319 2°52.486 -999 -999 -999 -999 -999
2008-05-30 08:51:43 51°19.319 2°52.486 -999 -999 -999 -999 -999
2008-05-30 08:51:48 51°19.319 2°52.486 -999 -999 -999 -999 -999
2008-05-30 08:51:53 51°19.319 2°52.486 -999 -999 -999 -999 -999
2008-05-30 08:51:58 51°19.32 2°52.486 -999 -999 -999 -999 -999
2008-05-30 08:52:03 51°19.32 2°52.486 -999 -999 -999 -999 -999
2008-05-30 08:52:08 51°19.32 2°52.486 -999 -999 -999 -999 -999
2008-05-30 08:52:13 51°19.32 2°52.486 -999 -999 -999 -999 -999
2008-05-30 08:52:18 51°19.321 2°52.486 -999 -999 -999 -999 -999
2008-05-30 08:52:23 51°19.321 2°52.486 -999 -999 -999 -999 -999
2008-05-30 08:52:28 51°19.321 2°52.485 -999 -999 -999 -999 -999
2008-05-30 08:52:33 51°19.322 2°52.485 -999 -999 -999 -999 -999
2008-05-30 08:52:38 51°19.322 2°52.485 -999 -999 -999 -999 -999
2008-05-30 08:52:43 51°19.322 2°52.485 -999 -999 -999 -999 -999
2008-05-30 08:52:48 51°19.323 2°52.485 -999 -999 -999 -999 -999
2008-05-30 08:52:53 51°19.323 2°52.485 -999 -999 -999 -999 -999
2008-05-30 08:52:58 51°19.324 2°52.485 -999 -999 -999 -999 -999
2008-05-30 08:53:03 51°19.324 2°52.485 -999 -999 -999 -999 -999
2008-05-30 08:53:08 51°19.324 2°52.485 -999 -999 -999 -999 -999
2008-05-30 08:53:13 51°19.324 2°52.485 -999 -999 -999 -999 -999
2008-05-30 08:53:18 51°19.325 2°52.485 -999 -999 -999 -999 -999
2008-05-30 08:53:23 51°19.325 2°52.485 -999 -999 -999 -999 -999
2008-05-30 08:53:28 51°19.325 2°52.484 -999 -999 -999 -999 -999
2008-05-30 08:53:33 51°19.326 2°52.485 -999 -999 -999 -999 -999
2008-05-30 08:53:38 51°19.326 2°52.484 -999 -999 -999 -999 -999
2008-05-30 08:53:43 51°19.326 2°52.484 -999 -999 -999 -999 -999
2008-05-30 08:53:48 51°19.326 2°52.484 -999 -999 -999 -999 -999
2008-05-30 08:53:53 51°19.326 2°52.485 -999 -999 -999 -999 -999
2008-05-30 08:53:58 51°19.326 2°52.484 -999 -999 -999 -999 -999
2008-05-30 08:54:03 51°19.326 2°52.484 -999 -999 -999 -999 -999
2008-05-30 08:54:08 51°19.326 2°52.484 -999 -999 -999 -999 -999
2008-05-30 08:54:13 51°19.326 2°52.485 -999 -999 -999 -999 -999
2008-05-30 08:54:18 51°19.326 2°52.485 -999 -999 -999 -999 -999
2008-05-30 08:54:23 51°19.326 2°52.485 -999 -999 -999 -999 -999
2008-05-30 08:54:28 51°19.326 2°52.485 -999 -999 -999 -999 -999
2008-05-30 08:54:33 51°19.326 2°52.485 -999 -999 -999 -999 -999
2008-05-30 08:54:38 51°19.326 2°52.485 -999 -999 -999 -999 -999
2008-05-30 08:54:43 51°19.326 2°52.485 -999 -999 -999 -999 -999
2008-05-30 08:54:48 51°19.325 2°52.485 -999 -999 -999 -999 -999
2008-05-30 08:54:53 51°19.325 2°52.486 -999 -999 -999 -999 -999
2008-05-30 08:54:58 51°19.325 2°52.486 -999 -999 -999 -999 -999
2008-05-30 08:55:03 51°19.324 2°52.486 -999 -999 -999 -999 -999
2008-05-30 08:55:08 51°19.324 2°52.486 -999 -999 -999 -999 -999
2008-05-30 08:55:13 51°19.324 2°52.486 -999 -999 -999 -999 -999
2008-05-30 08:55:18 51°19.323 2°52.487 -999 -999 -999 -999 -999
2008-05-30 08:55:23 51°19.323 2°52.487 -999 -999 -999 -999 -999
2008-05-30 08:55:28 51°19.322 2°52.488 -999 -999 -999 -999 -999
2008-05-30 08:55:33 51°19.322 2°52.488 -999 -999 -999 -999 -999
2008-05-30 08:55:38 51°19.321 2°52.488 -999 -999 -999 -999 -999
2008-05-30 08:55:43 51°19.321 2°52.488 -999 -999 -999 -999 -999
2008-05-30 08:55:48 51°19.32 2°52.488 -999 -999 -999 -999 -999
2008-05-30 08:55:53 51°19.32 2°52.489 -999 -999 -999 -999 -999
2008-05-30 08:55:58 51°19.32 2°52.489 -999 -999 -999 -999 -999
2008-05-30 08:56:03 51°19.319 2°52.489 -999 -999 -999 -999 -999
2008-05-30 08:56:08 51°19.319 2°52.49 -999 -999 -999 -999 -999
2008-05-30 08:56:13 51°19.318 2°52.49 -999 -999 -999 -999 -999
2008-05-30 08:56:18 51°19.318 2°52.49 -999 -999 -999 -999 -999
2008-05-30 08:56:23 51°19.317 2°52.49 -999 -999 -999 -999 -999
2008-05-30 08:56:28 51°19.317 2°52.491 -999 -999 -999 -999 -999
2008-05-30 08:56:33 51°19.317 2°52.491 -999 -999 -999 -999 -999
2008-05-30 08:56:38 51°19.316 2°52.491 -999 -999 -999 -999 -999
2008-05-30 08:56:43 51°19.316 2°52.491 -999 -999 -999 -999 -999
2008-05-30 08:56:48 51°19.315 2°52.491 -999 -999 -999 -999 -999
2008-05-30 08:56:53 51°19.315 2°52.491 -999 -999 -999 -999 -999
2008-05-30 08:56:58 51°19.314 2°52.491 -999 -999 -999 -999 -999
2008-05-30 08:57:03 51°19.314 2°52.491 -999 -999 -999 -999 -999
2008-05-30 08:57:08 51°19.314 2°52.492 -999 -999 -999 -999 -999
2008-05-30 08:57:13 51°19.313 2°52.492 -999 -999 -999 -999 -999
2008-05-30 08:57:18 51°19.312 2°52.492 -999 -999 -999 -999 -999
2008-05-30 08:57:23 51°19.312 2°52.493 -999 -999 -999 -999 -999
2008-05-30 08:57:28 51°19.311 2°52.493 -999 -999 -999 -999 -999
2008-05-30 08:57:33 51°19.311 2°52.493 -999 -999 -999 -999 -999
2008-05-30 08:57:38 51°19.311 2°52.494 -999 -999 -999 -999 -999
2008-05-30 08:57:43 51°19.31 2°52.494 -999 -999 -999 -999 -999
2008-05-30 08:57:48 51°19.31 2°52.494 -999 -999 -999 -999 -999
2008-05-30 08:57:53 51°19.309 2°52.494 -999 -999 -999 -999 -999
2008-05-30 08:57:58 51°19.309 2°52.495 -999 -999 -999 -999 -999
2008-05-30 08:58:03 51°19.308 2°52.495 -999 -999 -999 -999 -999
2008-05-30 08:58:08 51°19.308 2°52.495 -999 -999 -999 -999 -999
2008-05-30 08:58:13 51°19.307 2°52.495 -999 -999 -999 -999 -999
2008-05-30 08:58:18 51°19.307 2°52.495 -999 -999 -999 -999 -999
2008-05-30 08:58:23 51°19.307 2°52.495 -999 -999 -999 -999 -999
2008-05-30 08:58:28 51°19.306 2°52.496 -999 -999 -999 -999 -999
2008-05-30 08:58:33 51°19.306 2°52.496 -999 -999 -999 -999 -999
2008-05-30 08:58:38 51°19.305 2°52.496 -999 -999 -999 -999 -999
2008-05-30 08:58:43 51°19.305 2°52.496 -999 -999 -999 -999 -999
2008-05-30 08:58:48 51°19.305 2°52.496 -999 -999 -999 -999 -999
2008-05-30 08:58:53 51°19.304 2°52.496 -999 -999 -999 -999 -999
2008-05-30 08:58:58 51°19.304 2°52.496 -999 -999 -999 -999 -999
2008-05-30 08:59:03 51°19.303 2°52.496 -999 -999 -999 -999 -999
2008-05-30 08:59:08 51°19.303 2°52.496 -999 -999 -999 -999 -999
2008-05-30 08:59:13 51°19.303 2°52.496 -999 -999 -999 -999 -999
2008-05-30 08:59:18 51°19.302 2°52.496 -999 -999 -999 -999 -999
2008-05-30 08:59:23 51°19.302 2°52.496 -999 -999 -999 -999 -999
2008-05-30 08:59:28 51°19.302 2°52.495 -999 -999 -999 -999 -999
2008-05-30 08:59:33 51°19.302 2°52.495 -999 -999 -999 -999 -999
2008-05-30 08:59:38 51°19.302 2°52.495 -999 -999 -999 -999 -999
2008-05-30 08:59:43 51°19.301 2°52.495 -999 -999 -999 -999 -999
2008-05-30 08:59:48 51°19.301 2°52.495 -999 -999 -999 -999 -999
2008-05-30 08:59:53 51°19.301 2°52.495 -999 -999 -999 -999 -999
2008-05-30 08:59:58 51°19.301 2°52.494 -999 -999 -999 -999 -999
2008-05-30 09:00:03 51°19.301 2°52.494 -999 -999 -999 -999 -999
2008-05-30 09:00:08 51°19.301 2°52.494 -999 -999 -999 -999 -999
2008-05-30 09:00:13 51°19.301 2°52.494 -999 -999 -999 -999 -999
2008-05-30 09:00:18 51°19.301 2°52.493 -999 -999 -999 -999 -999
2008-05-30 09:00:23 51°19.301 2°52.493 -999 -999 -999 -999 -999
2008-05-30 09:00:28 51°19.302 2°52.493 -999 -999 -999 -999 -999
2008-05-30 09:00:33 51°19.302 2°52.493 -999 -999 -999 -999 -999
2008-05-30 09:00:38 51°19.302 2°52.493 -999 -999 -999 -999 -999
2008-05-30 09:00:43 51°19.302 2°52.492 -999 -999 -999 -999 -999
2008-05-30 09:00:48 51°19.302 2°52.492 -999 -999 -999 -999 -999
2008-05-30 09:00:53 51°19.303 2°52.492 -999 -999 -999 -999 -999
2008-05-30 09:00:58 51°19.303 2°52.491 -999 -999 -999 -999 -999
2008-05-30 09:01:03 51°19.303 2°52.491 -999 -999 -999 -999 -999
2008-05-30 09:01:08 51°19.303 2°52.491 -999 -999 -999 -999 -999
2008-05-30 09:01:13 51°19.304 2°52.49 -999 -999 -999 -999 -999
2008-05-30 09:01:18 51°19.304 2°52.49 -999 -999 -999 -999 -999
2008-05-30 09:01:23 51°19.304 2°52.49 -999 -999 -999 -999 -999
2008-05-30 09:01:28 51°19.305 2°52.489 -999 -999 -999 -999 -999
2008-05-30 09:01:33 51°19.305 2°52.489 -999 -999 -999 -999 -999
2008-05-30 09:01:38 51°19.305 2°52.489 -999 -999 -999 -999 -999
2008-05-30 09:01:43 51°19.306 2°52.488 -999 -999 -999 -999 -999
2008-05-30 09:01:48 51°19.306 2°52.488 -999 -999 -999 -999 -999
2008-05-30 09:01:53 51°19.307 2°52.488 -999 -999 -999 -999 -999
2008-05-30 09:01:58 51°19.307 2°52.487 -999 -999 -999 -999 -999
2008-05-30 09:02:03 51°19.307 2°52.487 -999 -999 -999 -999 -999
2008-05-30 09:02:08 51°19.308 2°52.487 -999 -999 -999 -999 -999
2008-05-30 09:02:13 51°19.308 2°52.487 -999 -999 -999 -999 -999
2008-05-30 09:02:18 51°19.308 2°52.486 -999 -999 -999 -999 -999
2008-05-30 09:02:23 51°19.309 2°52.486 -999 -999 -999 -999 -999
2008-05-30 09:02:28 51°19.309 2°52.485 -999 -999 -999 -999 -999
2008-05-30 09:02:33 51°19.31 2°52.485 -999 -999 -999 -999 -999
2008-05-30 09:02:38 51°19.31 2°52.485 -999 -999 -999 -999 -999
2008-05-30 09:02:43 51°19.311 2°52.485 -999 -999 -999 -999 -999
2008-05-30 09:02:48 51°19.311 2°52.484 -999 -999 -999 -999 -999
2008-05-30 09:02:53 51°19.311 2°52.484 -999 -999 -999 -999 -999
2008-05-30 09:02:58 51°19.312 2°52.484 -999 -999 -999 -999 -999
2008-05-30 09:03:03 51°19.312 2°52.484 -999 -999 -999 -999 -999
2008-05-30 09:03:08 51°19.312 2°52.483 -999 -999 -999 -999 -999
2008-05-30 09:03:13 51°19.313 2°52.483 -999 -999 -999 -999 -999
2008-05-30 09:03:18 51°19.313 2°52.483 -999 -999 -999 -999 -999
2008-05-30 09:03:23 51°19.314 2°52.482 -999 -999 -999 -999 -999
2008-05-30 09:03:28 51°19.314 2°52.482 -999 -999 -999 -999 -999
2008-05-30 09:03:33 51°19.314 2°52.482 -999 -999 -999 -999 -999
2008-05-30 09:03:38 51°19.314 2°52.482 -999 -999 -999 -999 -999
2008-05-30 09:03:43 51°19.315 2°52.481 -999 -999 -999 -999 -999
2008-05-30 09:03:48 51°19.315 2°52.481 -999 -999 -999 -999 -999
2008-05-30 09:03:53 51°19.315 2°52.481 -999 -999 -999 -999 -999
2008-05-30 09:03:58 51°19.316 2°52.481 -999 -999 -999 -999 -999
2008-05-30 09:04:03 51°19.316 2°52.481 -999 -999 -999 -999 -999
2008-05-30 09:04:08 51°19.316 2°52.48 -999 -999 -999 -999 -999
2008-05-30 09:04:13 51°19.316 2°52.48 -999 -999 -999 -999 -999
2008-05-30 09:04:18 51°19.317 2°52.48 -999 -999 -999 -999 -999
2008-05-30 09:04:23 51°19.317 2°52.479 -999 -999 -999 -999 -999
2008-05-30 09:04:28 51°19.317 2°52.479 -999 -999 -999 -999 -999
2008-05-30 09:04:33 51°19.318 2°52.479 -999 -999 -999 -999 -999
2008-05-30 09:04:38 51°19.318 2°52.479 -999 -999 -999 -999 -999
2008-05-30 09:04:43 51°19.318 2°52.478 -999 -999 -999 -999 -999
2008-05-30 09:04:48 51°19.318 2°52.478 -999 -999 -999 -999 -999
2008-05-30 09:04:53 51°19.318 2°52.478 -999 -999 -999 -999 -999
2008-05-30 09:04:58 51°19.318 2°52.478 -999 -999 -999 -999 -999
2008-05-30 09:05:03 51°19.318 2°52.478 -999 -999 -999 -999 -999
2008-05-30 09:05:08 51°19.319 2°52.477 -999 -999 -999 -999 -999
2008-05-30 09:05:13 51°19.319 2°52.477 -999 -999 -999 -999 -999
2008-05-30 09:05:18 51°19.319 2°52.477 -999 -999 -999 -999 -999
2008-05-30 09:05:23 51°19.319 2°52.477 -999 -999 -999 -999 -999
2008-05-30 09:05:28 51°19.319 2°52.477 -999 -999 -999 -999 -999
2008-05-30 09:05:33 51°19.318 2°52.476 -999 -999 -999 -999 -999
2008-05-30 09:05:38 51°19.318 2°52.476 -999 -999 -999 -999 -999
2008-05-30 09:05:43 51°19.318 2°52.476 -999 -999 -999 -999 -999
2008-05-30 09:05:48 51°19.318 2°52.476 -999 -999 -999 -999 -999
2008-05-30 09:05:53 51°19.318 2°52.476 -999 -999 -999 -999 -999
2008-05-30 09:05:58 51°19.318 2°52.476 -999 -999 -999 -999 -999
2008-05-30 09:06:03 51°19.318 2°52.476 -999 -999 -999 -999 -999
2008-05-30 09:06:08 51°19.317 2°52.476 -999 -999 -999 -999 -999
2008-05-30 09:06:13 51°19.317 2°52.475 -999 -999 -999 -999 -999
2008-05-30 09:06:18 51°19.317 2°52.475 -999 -999 -999 -999 -999
2008-05-30 09:06:23 51°19.316 2°52.475 -999 -999 -999 -999 -999
2008-05-30 09:06:28 51°19.316 2°52.475 -999 -999 -999 -999 -999
2008-05-30 09:06:33 51°19.316 2°52.475 -999 -999 -999 -999 -999
2008-05-30 09:06:38 51°19.315 2°52.475 -999 -999 -999 -999 -999
2008-05-30 09:06:43 51°19.315 2°52.475 -999 -999 -999 -999 -999
2008-05-30 09:06:48 51°19.315 2°52.475 -999 -999 -999 -999 -999
2008-05-30 09:06:53 51°19.314 2°52.475 -999 -999 -999 -999 -999
2008-05-30 09:06:58 51°19.314 2°52.475 -999 -999 -999 -999 -999
2008-05-30 09:07:03 51°19.314 2°52.474 -999 -999 -999 -999 -999
2008-05-30 09:07:08 51°19.313 2°52.474 -999 -999 -999 -999 -999
2008-05-30 09:07:13 51°19.313 2°52.474 -999 -999 -999 -999 -999
2008-05-30 09:07:18 51°19.313 2°52.474 -999 -999 -999 -999 -999
2008-05-30 09:07:23 51°19.312 2°52.474 -999 -999 -999 -999 -999
2008-05-30 09:07:28 51°19.312 2°52.473 -999 -999 -999 -999 -999
2008-05-30 09:07:33 51°19.311 2°52.473 -999 -999 -999 -999 -999